Hourly Weather Barro

Today, 21 April, Wednesday

Time Temperature Precipitation Wind Pressure Humidity
00:00 +22°C° 0 mm 0 mps 735 mmHg 85%
01:00 +21°C° 0.1 mm 0 mps 735 mmHg 87%
02:00 +21°C° 0.1 mm 0 mps 734 mmHg 90%
03:00 +22°C° 0.1 mm 1 mps 734 mmHg 92%
04:00 +20°C° 0 mm 0 mps 734 mmHg 93%
05:00 +20°C° 0 mm 0 mps 735 mmHg 94%
06:00 +20°C° 0 mm 0 mps 735 mmHg 95%
07:00 +23°C° 0 mm 0 mps 736 mmHg 85%
08:00 +27°C° 0 mm 1 mps 736 mmHg 74%
09:00 +30°C° 0 mm 1 mps 737 mmHg 64%
10:00 +31°C° 0.1 mm 1 mps 736 mmHg 58%
11:00 +33°C° 0.1 mm 1 mps 735 mmHg 52%
12:00 +35°C° 0.1 mm 1 mps 735 mmHg 45%
13:00 +34°C° 0 mm 1 mps 734 mmHg 47%
14:00 +34°C° 0 mm 2 mps 733 mmHg 49%
15:00 +34°C° 0 mm 2 mps 733 mmHg 50%
16:00 +31°C° 0 mm 2 mps 733 mmHg 57%
17:00 +30°C° 0 mm 2 mps 733 mmHg 63%
18:00 +28°C° 0 mm 1 mps 734 mmHg 70%
19:00 +27°C° 0.2 mm 1 mps 734 mmHg 74%
20:00 +26°C° 0.2 mm 1 mps 735 mmHg 79%
21:00 +23°C° 0.2 mm 0 mps 735 mmHg 84%
22:00 +23°C° 0 mm 0 mps 735 mmHg 85%
23:00 +25°C° 0 mm 1 mps 735 mmHg 86%

Tomorrow, 22 April, Thursday

Time Temperature Precipitation Wind Pressure Humidity
00:00 +24°C° 0 mm 1 mps 735 mmHg 87%
01:00 +24°C° 0 mm 1 mps 735 mmHg 90%
02:00 +21°C° 0 mm 0 mps 735 mmHg 94%
03:00 +21°C° 0 mm 0 mps 734 mmHg 97%
04:00 +21°C° 0 mm 0 mps 735 mmHg 97%
05:00 +21°C° 0 mm 0 mps 735 mmHg 97%
06:00 +21°C° 0 mm 0 mps 735 mmHg 97%
07:00 +23°C° 0 mm 0 mps 736 mmHg 86%
08:00 +26°C° 0 mm 0 mps 736 mmHg 76%
09:00 +28°C° 0 mm 0 mps 736 mmHg 65%
10:00 +29°C° 0.1 mm 0 mps 736 mmHg 61%
11:00 +31°C° 0.1 mm 1 mps 735 mmHg 58%
12:00 +32°C° 0.1 mm 1 mps 735 mmHg 54%
13:00 +31°C° 0.6 mm 1 mps 734 mmHg 59%
14:00 +31°C° 0.6 mm 1 mps 734 mmHg 65%
15:00 +30°C° 0.6 mm 1 mps 733 mmHg 70%
16:00 +29°C° 0.3 mm 1 mps 733 mmHg 75%
17:00 +25°C° 0.3 mm 0 mps 734 mmHg 80%
18:00 +24°C° 0.3 mm 0 mps 734 mmHg 85%
19:00 +23°C° 0 mm 0 mps 734 mmHg 87%
20:00 +23°C° 0 mm 0 mps 735 mmHg 88%
21:00 +22°C° 0 mm 0 mps 735 mmHg 90%
22:00 +22°C° 0.3 mm 0 mps 735 mmHg 92%
23:00 +22°C° 0.3 mm 0 mps 735 mmHg 94%

Day after tomorrow, 23 April, Friday

Time Temperature Precipitation Wind Pressure Humidity
00:00 +21°C° 0.3 mm 0 mps 735 mmHg 95%
01:00 +21°C° 1 mm 0 mps 735 mmHg 96%
02:00 +21°C° 1 mm 0 mps 735 mmHg 97%
03:00 +21°C° 1 mm 0 mps 735 mmHg 97%
04:00 +21°C° 1.7 mm 0 mps 735 mmHg 98%
05:00 +21°C° 1.7 mm 0 mps 735 mmHg 98%
06:00 +21°C° 1.7 mm 0 mps 736 mmHg 98%
07:00 +22°C° 0.7 mm 0 mps 736 mmHg 94%
08:00 +25°C° 0.7 mm 1 mps 737 mmHg 90%
09:00 +26°C° 0.7 mm 1 mps 737 mmHg 86%
10:00 +27°C° 0.7 mm 1 mps 737 mmHg 82%
11:00 +28°C° 0.7 mm 1 mps 736 mmHg 77%
12:00 +30°C° 0.7 mm 1 mps 736 mmHg 73%
13:00 +31°C° 0.2 mm 1 mps 735 mmHg 63%
14:00 +32°C° 0.2 mm 1 mps 734 mmHg 53%
15:00 +34°C° 0.2 mm 1 mps 733 mmHg 44%
16:00 +32°C° 0 mm 1 mps 733 mmHg 51%
17:00 +30°C° 0 mm 1 mps 733 mmHg 59%
18:00 +28°C° 0 mm 1 mps 733 mmHg 67%
19:00 +27°C° 0 mm 1 mps 734 mmHg 70%
20:00 +27°C° 0 mm 1 mps 734 mmHg 73%
21:00 +26°C° 0 mm 1 mps 735 mmHg 77%
22:00 +26°C° 0 mm 1 mps 735 mmHg 79%
23:00 +25°C° 0 mm 1 mps 735 mmHg 82%

24 April, Saturday

Time Temperature Precipitation Wind Pressure Humidity
00:00 +25°C° 0 mm 1 mps 735 mmHg 85%
01:00 +22°C° 0 mm 0 mps 734 mmHg 86%
02:00 +22°C° 0 mm 0 mps 734 mmHg 88%
03:00 +22°C° 0 mm 0 mps 733 mmHg 90%
04:00 +22°C° 0 mm 0 mps 734 mmHg 91%
05:00 +23°C° 0 mm 1 mps 734 mmHg 93%
06:00 +23°C° 0 mm 1 mps 734 mmHg 94%
07:00 +26°C° 0 mm 1 mps 735 mmHg 81%
08:00 +28°C° 0 mm 1 mps 735 mmHg 68%
09:00 +30°C° 0 mm 2 mps 736 mmHg 55%
10:00 +32°C° 0 mm 2 mps 735 mmHg 49%
11:00 +34°C° 0 mm 2 mps 735 mmHg 43%
12:00 +36°C° 0 mm 2 mps 734 mmHg 38%
13:00 +36°C° 0 mm 2 mps 734 mmHg 38%
14:00 +36°C° 0 mm 2 mps 733 mmHg 39%
15:00 +36°C° 0 mm 2 mps 732 mmHg 39%
16:00 +34°C° 0 mm 2 mps 733 mmHg 48%
17:00 +30°C° 0 mm 2 mps 733 mmHg 58%
18:00 +28°C° 0 mm 2 mps 733 mmHg 67%
19:00 +28°C° 0 mm 1 mps 733 mmHg 71%
20:00 +27°C° 0 mm 1 mps 734 mmHg 75%
21:00 +26°C° 0 mm 1 mps 734 mmHg 79%
22:00 +23°C° 0.7 mm 0 mps 734 mmHg 84%
23:00 +23°C° 0.7 mm 0 mps 734 mmHg 89%

25 April, Sunday

Time Temperature Precipitation Wind Pressure Humidity
00:00 +22°C° 0.7 mm 0 mps 734 mmHg 94%
01:00 +22°C° 0 mm 0 mps 734 mmHg 94%
02:00 +22°C° 0 mm 0 mps 734 mmHg 94%
03:00 +22°C° 0 mm 0 mps 734 mmHg 94%
04:00 +22°C° 0 mm 0 mps 734 mmHg 94%
05:00 +22°C° 0 mm 0 mps 734 mmHg 94%
06:00 +22°C° 0 mm 0 mps 735 mmHg 95%
07:00 +26°C° 0 mm 1 mps 735 mmHg 83%
08:00 +28°C° 0 mm 1 mps 736 mmHg 71%
09:00 +30°C° 0 mm 2 mps 736 mmHg 59%
10:00 +32°C° 0 mm 2 mps 735 mmHg 53%
11:00 +34°C° 0 mm 2 mps 735 mmHg 47%
12:00 +36°C° 0 mm 2 mps 734 mmHg 41%
13:00 +36°C° 0 mm 2 mps 733 mmHg 40%
14:00 +36°C° 0 mm 2 mps 733 mmHg 39%
15:00 +36°C° 0 mm 2 mps 732 mmHg 37%
16:00 +34°C° 0 mm 2 mps 732 mmHg 45%
17:00 +31°C° 0 mm 1 mps 732 mmHg 53%
18:00 +28°C° 0 mm 1 mps 732 mmHg 61%
19:00 +27°C° 0 mm 1 mps 733 mmHg 65%
20:00 +27°C° 0 mm 1 mps 733 mmHg 70%
21:00 +26°C° 0 mm 1 mps 734 mmHg 75%
22:00 +25°C° 0 mm 1 mps 734 mmHg 76%
23:00 +25°C° 0 mm 1 mps 734 mmHg 76%

26 April, Monday

Time Temperature Precipitation Wind Pressure Humidity
00:00 +25°C° 0 mm 1 mps 734 mmHg 77%
01:00 +22°C° 0 mm 0 mps 734 mmHg 81%
02:00 +21°C° 0 mm 0 mps 734 mmHg 84%
03:00 +21°C° 0 mm 0 mps 734 mmHg 87%
04:00 +21°C° 0 mm 0 mps 734 mmHg 88%
05:00 +21°C° 0 mm 0 mps 734 mmHg 89%
06:00 +21°C° 0 mm 0 mps 735 mmHg 90%
07:00 +25°C° 0 mm 1 mps 735 mmHg 79%
08:00 +28°C° 0 mm 1 mps 735 mmHg 68%
09:00 +31°C° 0 mm 2 mps 736 mmHg 57%
10:00 +32°C° 0 mm 2 mps 735 mmHg 50%
11:00 +35°C° 0 mm 2 mps 735 mmHg 44%
12:00 +36°C° 0 mm 3 mps 734 mmHg 37%
13:00 +36°C° 0 mm 3 mps 733 mmHg 35%
14:00 +37°C° 0 mm 3 mps 733 mmHg 33%
15:00 +37°C° 0 mm 3 mps 732 mmHg 32%
16:00 +34°C° 0 mm 3 mps 732 mmHg 39%
17:00 +31°C° 0 mm 2 mps 732 mmHg 47%
18:00 +28°C° 0 mm 2 mps 733 mmHg 55%
19:00 +27°C° 0 mm 1 mps 733 mmHg 58%
20:00 +27°C° 0 mm 1 mps 733 mmHg 61%
21:00 +26°C° 0 mm 1 mps 734 mmHg 64%
22:00 +25°C° 0 mm 1 mps 734 mmHg 68%
23:00 +22°C° 0 mm 0 mps 734 mmHg 73%
Show more